Tracking 19817 objects as of 19-Aug-2019
HD Live streaming from Space Station
objects crossing your sky now

AMOS 17

Track AMOS 17 now!


NORAD ID: 44479
Int'l Code: 2019-050A
Perigee: 35,816.6 km
Apogee: 35,986.4 km
Inclination: 0.2 °
Period: 1,441.6 minutes
Semi major axis: 42272 km
RCS: Unknown
Launch date: August 6, 2019
Source: Israel (ISRA)
Launch site: AIR FORCE EASTERN TEST RANGE (AFETR)
aabbcc
Your satellite tracking list
Your tracking list is empty




NASA's NSSDC Master Catalog

Two Line Element Set (TLE):
1 44479U 19050A   19227.74909808  .00000014  00000-0  10000-3 0  9998
2 44479   0.1737 282.3275 0020082 305.3373  19.6334  0.99888643   161
Source of the keplerian elements: AFSPC